This is the latest recevied weather packets stored in our database for station/object KC9GSD. If no packets are shown the sender has not sent any weather packets the latest 10 day(s).
| Time | Temp. | Humidity | Pressure | Rain* | Wind** | Luminosity | Snow |
|---|---|---|---|---|---|---|---|
| 1777637031 | 10° C | 88% | 1014.5 hPa | 0 mm | - | 38 W/m² | - |
| 1777636726 | 9.44° C | 90% | 1014.3 hPa | 0 mm | - | 35 W/m² | - |
| 1777635510 | 8.89° C | 93% | 1014.1 hPa | 0 mm | - | 16 W/m² | - |
| 1777635207 | 8.89° C | 92% | 1013.8 hPa | 0 mm | - | 15 W/m² | - |
| 1777634904 | 8.89° C | 92% | 1014.1 hPa | 0 mm | - | 13 W/m² | - |
| 1777634601 | 8.89° C | 92% | 1013.8 hPa | 0 mm | - | 12 W/m² | - |
| 1777634298 | 8.33° C | 92% | 1013.9 hPa | 0 mm | - | 9 W/m² | - |
| 1777633994 | 8.33° C | 92% | 1013.8 hPa | 0 mm | - | 8 W/m² | - |
| 1777633691 | 8.33° C | 92% | 1013.4 hPa | 0 mm | - | 7 W/m² | - |
| 1777633389 | 8.33° C | 92% | 1013.2 hPa | 0 mm | - | 4 W/m² | - |
| 1777633087 | 8.33° C | 92% | 1013.3 hPa | 0 mm | - | 3 W/m² | - |
| 1777632783 | 8.33° C | 91% | 1013.2 hPa | 0 mm | - | 2 W/m² | - |
| 1777632479 | 8.33° C | 92% | 1013.1 hPa | 0 mm | - | 1 W/m² | - |
| 1777632176 | 8.33° C | 92% | 1013.2 hPa | 0 mm | - | 0 W/m² | - |
| 1777631873 | 8.33° C | 92% | 1013.2 hPa | 0 mm | - | 0 W/m² | - |
| 1777631572 | 8.33° C | 91% | 1013.1 hPa | 0 mm | - | 0 W/m² | - |
| 1777631268 | 8.33° C | 91% | 1013.1 hPa | 0 mm | - | 0 W/m² | - |
| 1777630966 | 8.33° C | 90% | 1013.2 hPa | 0 mm | - | 0 W/m² | - |
| 1777630661 | 8.89° C | 90% | 1013 hPa | 0 mm | - | 0 W/m² | - |
| 1777630359 | 8.89° C | 89% | 1013.1 hPa | 0 mm | - | 0 W/m² | - |
| 1777630056 | 8.89° C | 87% | 1013.1 hPa | 0 mm | - | 0 W/m² | - |
| 1777629753 | 8.89° C | 87% | 1013.1 hPa | 0 mm | - | 0 W/m² | - |
| 1777629450 | 8.89° C | 86% | 1013.1 hPa | 0 mm | - | 0 W/m² | - |
| 1777629146 | 8.89° C | 89% | 1012.9 hPa | 0 mm | - | 0 W/m² | - |
| 1777628842 | 8.89° C | 89% | 1013.1 hPa | 0 mm | - | 0 W/m² | - |
* Rain latest hour (hover to see other rain measurements)
** Current wind speed in m/s (hover to see current wind gust speed)